Location: W�rzburg
(49.7529°N, 9.8822°E)
Time: 03:24:29
(UTC+01:00)

Amateur Radio Satellites - All Passes

Search period start: 22 January 2018 02:54
Search period end: 23 January 2018 02:54
Location: W�rzburg, 49.7529°N, 9.8822°E

Satellite Date Start Highest point End Downlink Frequencies (MHz)
Time Altitude Azimuth
BUGSAT 1 22 Jan 02:56:35 02:59:52 22° 298° (WNW) 03:03:08 437.445
Oscar 19 22 Jan 02:57:58 03:02:52 44° 294° (WNW) 03:07:44 437.125/150
UKube-1 22 Jan 03:09:38 03:11:46 13° 271° (W) 03:13:55 .
ITUPSAT 1 22 Jan 03:09:47 03:14:32 69° 257° (WSW) 03:19:22 437.325
KKS-1 22 Jan 03:19:46 03:22:23 16° 57° (ENE) 03:25:00 437.445
MOZHAYETS 4 22 Jan 03:33:06 03:37:02 27° 266° (W) 03:41:00
CUBESAT XI-V 22 Jan 03:37:31 03:42:13 80° 256° (WSW) 03:46:56 437.345
DOVE 4 22 Jan 03:48:39 03:49:44 11° 87° (E) 03:50:49 437.250
BEESAT 22 Jan 03:49:38 03:53:51 31° 265° (W) 03:58:06 436.000
ITAMSAT 1 22 Jan 04:05:50 04:10:57 53° 101° (E) 04:16:01 435.822/435.867
AO-7 22 Jan 04:28:41 04:37:09 89° 111° (ESE) 04:45:31 .
Gurwin Techsat 1B 22 Jan 04:32:37 04:34:59 13° 310° (NW) 04:37:21 435.225
SO-50 22 Jan 04:40:39 04:43:29 17° 112° (ESE) 04:46:22 436.795
M-CUBED/EXP-1 PRIME 22 Jan 04:51:39 04:54:08 19° 99° (E) 04:56:33 437.505
KKS-1 22 Jan 04:53:57 04:58:22 79° 256° (WSW) 05:02:49 437.445
STARS 22 Jan 05:07:02 05:11:19 61° 71° (ENE) 05:15:39 437.465
CUBESAT XI-V 22 Jan 05:19:07 05:20:21 11° 275° (W) 05:21:36 437.345
STRAND 1 22 Jan 05:22:58 05:26:33 20° 57° (ENE) 05:30:09 437.568
DOVE 4 22 Jan 05:23:42 05:28:02 87° 106° (ESE) 05:32:35 437.250
LilacSat-2 22 Jan 05:24:11 05:26:23 15° 90° (E) 05:28:34 437.200
XW-2C 22 Jan 05:25:12 05:27:14 14° 89° (E) 05:29:14 145.795 - 145.815
HO-68 22 Jan 05:27:31 05:28:33 10° 80° (E) 05:29:35 435.675
FO-29 22 Jan 05:45:42 05:49:58 19° 55° (NE) 05:53:57 435.910
ITAMSAT 1 22 Jan 05:45:49 05:50:07 27° 300° (WNW) 05:54:27 435.822/435.867
CUTE-I 22 Jan 05:46:38 05:50:49 23° 91° (E) 05:55:00 437.470
KAITUO 1B 22 Jan 05:56:16 05:59:08 21° 93° (E) 06:01:58 145.475/437.950
XW-2F 22 Jan 05:59:34 06:02:52 29° 96° (E) 06:06:08 145.980 - 146.000
NUDT-PHONESAT 22 Jan 06:05:09 06:08:12 24° 94° (E) 06:11:14 437.300
XW-2D 22 Jan 06:10:00 06:13:37 42° 98° (E) 06:17:10 145.860 - 145.880
SO-50 22 Jan 06:18:53 06:23:22 79° 312° (NW) 06:27:58 436.795
CUTE 1.7 + AOD 2 22 Jan 06:20:29 06:23:26 18° 90° (E) 06:26:21 437.475
AO-7 22 Jan 06:22:11 06:29:01 29° 313° (NW) 06:35:49 .
M-CUBED/EXP-1 PRIME 22 Jan 06:25:37 06:28:41 32° 298° (WNW) 06:31:39 437.505
XW-2B 22 Jan 06:27:34 06:31:20 64° 102° (ESE) 06:35:02 145.730 - 145.750
CUBEBUG 2 22 Jan 06:43:09 06:46:58 23° 91° (E) 06:50:46 437.445
STARS 22 Jan 06:45:12 06:48:03 17° 270° (W) 06:50:56 437.465
UWE-3 22 Jan 06:47:00 06:49:44 15° 87° (E) 06:52:25 435.000/436.395/437.385
RS-15 22 Jan 06:52:37 07:02:11 28° 102° (ESE) 07:11:37 29.354- 29.394
LilacSat-2 22 Jan 06:57:16 07:00:59 53° 288° (WNW) 07:04:39 437.200
XW-2C 22 Jan 06:58:03 07:01:46 56° 288° (WNW) 07:05:26 145.795 - 145.815
STRAND 1 22 Jan 07:00:06 07:05:11 76° 256° (WSW) 07:10:20 437.568
DOVE 4 22 Jan 07:03:02 07:05:11 14° 302° (WNW) 07:07:23 437.250
ZACube-1 22 Jan 07:08:39 07:10:46 13° 86° (E) 07:12:52 437.345
HO-68 22 Jan 07:10:56 07:17:58 55° 101° (E) 07:24:57 435.675
AO-73 22 Jan 07:14:43 07:16:50 13° 86° (E) 07:18:57 145.935
AAUSAT CUBESAT 2 22 Jan 07:19:22 07:22:25 20° 91° (E) 07:25:26 437.432
CUTE-I 22 Jan 07:26:01 07:31:16 60° 290° (WNW) 07:36:30 437.470
FO-29 22 Jan 07:27:46 07:34:27 86° 74° (ENE) 07:40:21 435.910
KAITUO 1B 22 Jan 07:29:49 07:33:12 34° 291° (WNW) 07:36:34 145.475/437.950
XW-2F 22 Jan 07:33:45 07:36:53 26° 294° (WNW) 07:40:01 145.980 - 146.000
NUDT-PHONESAT 22 Jan 07:38:49 07:42:03 29° 292° (WNW) 07:45:15 437.300
SEEDS 22 Jan 07:40:31 07:44:42 70° 101° (E) 07:48:51 437.485
XW-2A 22 Jan 07:41:40 07:44:27 23° 95° (E) 07:47:12 145.665 - 145.685
XW-2D 22 Jan 07:44:48 07:47:30 19° 297° (WNW) 07:50:13 145.860 - 145.880
Oscar 11 22 Jan 07:46:12 07:48:54 16° 89° (E) 07:51:36 .
CUTE 1.7 + AOD 2 22 Jan 07:55:28 07:59:35 52° 289° (WNW) 08:03:39 437.475
SO-50 22 Jan 08:01:03 08:04:33 21° 333° (NNW) 08:08:06 436.795
XW-2B 22 Jan 08:03:02 08:05:01 14° 300° (WNW) 08:07:00 145.730 - 145.750
AO-7 22 Jan 08:17:00 08:19:03 11° 339° (NNW) 08:21:06 .
YUBILEINY 22 Jan 08:18:40 08:25:22 23° 55° (NE) 08:31:59 435.215
CUBEBUG 2 22 Jan 08:19:13 08:23:50 51° 290° (WNW) 08:28:25 437.445
UWE-3 22 Jan 08:22:01 08:26:44 77° 286° (WNW) 08:31:21 435.000/436.395/437.385
TIGRISAT 22 Jan 08:22:09 08:26:08 33° 65° (ENE) 08:30:13 435.000
PRISM 22 Jan 08:30:39 08:31:57 11° 56° (NE) 08:33:14 437.425
UNISAT 6 22 Jan 08:37:24 08:41:41 48° 69° (ENE) 08:46:06 437.425
O/OREOS (USA 219) 22 Jan 08:39:55 08:43:27 22° 47° (NE) 08:46:59 437.305
ZACube-1 22 Jan 08:43:04 08:47:41 85° 284° (WNW) 08:52:12 437.345
STRAND 1 22 Jan 08:43:37 08:45:16 11° 275° (W) 08:46:56 437.568
AO-73 22 Jan 08:49:06 08:53:42 84° 283° (WNW) 08:58:11 145.935
AAUSAT CUBESAT 2 22 Jan 08:54:09 08:58:05 45° 290° (WNW) 09:02:00 437.432
HO-68 22 Jan 08:59:01 09:05:30 39° 302° (WNW) 09:11:59 435.675
RS-15 22 Jan 09:00:39 09:13:00 83° 126° (SE) 09:25:07 29.354- 29.394
CUTE-I 22 Jan 09:08:12 09:10:18 12° 311° (NW) 09:12:24 437.470
XW-2A 22 Jan 09:14:16 09:17:07 25° 293° (WNW) 09:19:56 145.665 - 145.685
FO-29 22 Jan 09:15:43 09:20:08 19° 271° (W) 09:24:16 435.910
SEEDS 22 Jan 09:17:27 09:19:53 15° 301° (WNW) 09:22:18 437.485
DELFI C3 22 Jan 09:19:28 09:22:50 27° 95° (E) 09:26:12 145.870
Oscar 11 22 Jan 09:21:10 09:25:28 63° 288° (WNW) 09:29:43 .
Max Valier Satellite 22 Jan 09:43:21 09:46:43 31° 96° (E) 09:50:02 145.860
SO-50 22 Jan 09:44:33 09:46:41 13° 358° (N) 09:48:50 436.795
EO-79 22 Jan 09:48:18 09:50:00 12° 56° (NE) 09:51:43 145.935-145.965
BEESAT 3 22 Jan 09:58:36 10:02:32 62° 126° (SE) 10:06:29 437.485
TIGRISAT 22 Jan 09:58:46 10:02:48 33° 265° (W) 10:06:58 435.000
EO-88 22 Jan 09:59:09 10:02:26 31° 96° (E) 10:05:41 145.990 - 145.960
AIST 2D 22 Jan 09:59:18 10:02:28 32° 69° (ENE) 10:05:38 435.315
UWE-3 22 Jan 10:00:18 10:02:22 13° 305° (NW) 10:04:27 435.000/436.395/437.385
PCSat 22 Jan 10:01:21 10:06:38 58° 119° (ESE) 10:11:59 145.827
PRISM 22 Jan 10:02:28 10:06:32 83° 74° (ENE) 10:10:36 437.425
YUBILEINY 22 Jan 10:14:52 10:23:41 83° 80° (E) 10:32:24 435.215
UNISAT 6 22 Jan 10:15:08 10:18:39 22° 269° (W) 10:22:16 437.425
O/OREOS (USA 219) 22 Jan 10:18:50 10:23:15 60° 248° (WSW) 10:27:39 437.305
ZACube-1 22 Jan 10:20:59 10:23:14 14° 304° (NW) 10:25:28 437.345
POLYITAN 1 22 Jan 10:21:36 10:25:00 23° 63° (ENE) 10:28:25 437.675
AO-73 22 Jan 10:27:00 10:29:11 13° 304° (NW) 10:31:20 145.935
NANOSAT C BR1 22 Jan 10:35:44 10:39:19 28° 65° (ENE) 10:42:57 145.865
HO-68 22 Jan 10:49:20 10:51:21 11° 325° (NW) 10:53:21 435.675
BEESAT 2 22 Jan 10:49:40 10:53:37 57° 125° (SE) 10:57:36 435.950
QB50P2 22 Jan 10:50:35 10:54:39 47° 70° (ENE) 10:58:46 145.880/145.840
DELFI C3 22 Jan 10:54:06 10:57:35 31° 293° (WNW) 11:01:02 145.870
Gurwin Techsat 1B 22 Jan 11:01:51 11:02:58 11° 48° (NE) 11:04:07 435.225
Oscar 19 22 Jan 11:03:59 11:06:29 14° 51° (NE) 11:08:58 437.125/150
LO-87 22 Jan 11:14:14 11:17:32 32° 96° (E) 11:20:49 145.935 - 145.965
RS-15 22 Jan 11:14:58 11:26:47 49° 334° (NNW) 11:38:14 29.354- 29.394
Max Valier Satellite 22 Jan 11:17:23 11:20:24 24° 294° (WNW) 11:23:23 145.860
DUCHIFAT 1 22 Jan 11:17:58 11:22:07 61° 72° (ENE) 11:26:20 145.980
EO-79 22 Jan 11:20:49 11:25:03 84° 77° (ENE) 11:29:20 145.935-145.965
SO-50 22 Jan 11:25:37 11:28:55 19° 23° (NNE) 11:32:16 436.795
AO-85 22 Jan 11:25:37 11:28:40 21° 114° (ESE) 11:31:53 145.980
SPROUT 22 Jan 11:29:54 11:30:32 10° 86° (E) 11:31:10 437.525
AIST 2D 22 Jan 11:32:58 11:35:41 21° 267° (W) 11:38:25 435.315
EO-88 22 Jan 11:33:01 11:35:57 23° 294° (WNW) 11:38:51 145.990 - 145.960
BEESAT 3 22 Jan 11:37:04 11:40:22 24° 326° (NW) 11:43:42 437.485
PRISM 22 Jan 11:41:14 11:42:22 11° 273° (W) 11:43:30 437.425
PCSat 22 Jan 11:45:27 11:50:22 33° 321° (NW) 11:55:17 145.827
ESTCUBE 1 22 Jan 11:46:43 11:51:10 56° 101° (E) 11:55:34 437.505/2401.250
AO-7 22 Jan 11:52:23 11:57:15 17° 34° (NE) 12:02:08 .
POLYITAN 1 22 Jan 11:56:29 12:00:32 43° 262° (W) 12:04:39 437.675
AO-91 22 Jan 12:01:13 12:03:59 23° 65° (ENE) 12:06:54 145.960
NANOSAT C BR1 22 Jan 12:11:03 12:14:55 35° 263° (W) 12:18:51 145.865
YUBILEINY 22 Jan 12:12:47 12:19:27 26° 282° (WNW) 12:26:06 435.215
BUGSAT 1 22 Jan 12:14:06 12:18:07 58° 72° (ENE) 12:22:14 437.445
QB50P2 22 Jan 12:27:28 12:30:41 21° 268° (W) 12:33:55 145.880/145.840
BEESAT 2 22 Jan 12:28:11 12:31:37 26° 325° (NW) 12:35:04 435.950
Gurwin Techsat 1B 22 Jan 12:36:38 12:41:46 52° 68° (ENE) 12:46:56 435.225
Oscar 19 22 Jan 12:39:44 12:44:54 69° 71° (ENE) 12:50:05 437.125/150
LO-87 22 Jan 12:47:53 12:50:48 23° 294° (WNW) 12:53:42 145.935 - 145.965
DUCHIFAT 1 22 Jan 12:55:34 12:58:11 16° 270° (W) 13:00:50 145.980
EO-79 22 Jan 12:59:52 13:01:25 12° 273° (W) 13:02:58 145.935-145.965
SPROUT 22 Jan 13:02:46 13:07:05 85° 101° (E) 13:11:24 437.525
AO-85 22 Jan 13:04:39 13:08:39 56° 315° (NW) 13:13:01 145.980
SO-50 22 Jan 13:05:40 13:10:18 58° 45° (NE) 13:15:00 436.795
VELOX 1 22 Jan 13:16:30 13:20:53 64° 102° (ESE) 13:25:15 145.980
BEESAT 3 22 Jan 13:18:37 13:19:15 10° 349° (NNW) 13:19:52 437.485
ESTCUBE 1 22 Jan 13:24:16 13:27:36 21° 300° (WNW) 13:30:56 437.505/2401.250
DX 1 22 Jan 13:28:55 13:32:05 19° 92° (E) 13:35:15 434.975-435.025
RS-15 22 Jan 13:31:27 13:42:40 40° 7° (N) 13:53:23 29.354- 29.394
PCSat 22 Jan 13:32:31 13:35:27 14° 345° (NNW) 13:38:23 145.827
AO-91 22 Jan 13:37:30 13:40:25 26° 265° (W) 13:43:30 145.960
AO-7 22 Jan 13:40:13 13:48:09 50° 58° (ENE) 13:56:07 .
50 SAT 22 Jan 13:48:00 13:50:29 21° 95° (E) 13:52:58 437.505
ITAMSAT 1 22 Jan 13:50:30 13:54:26 23° 58° (ENE) 13:58:23 435.822/435.867
BUGSAT 1 22 Jan 13:51:17 13:53:52 16° 270° (W) 13:56:29 437.445
BEESAT 2 22 Jan 14:09:35 14:10:40 11° 348° (NNW) 14:11:44 435.950
M-CUBED/EXP-1 PRIME 22 Jan 14:10:02 14:10:14 10° 50° (NE) 14:10:27 437.505
Gurwin Techsat 1B 22 Jan 14:17:32 14:21:59 27° 267° (W) 14:26:29 435.225
Oscar 19 22 Jan 14:21:00 14:24:42 20° 270° (W) 14:28:27 437.125/150
SPROUT 22 Jan 14:40:08 14:42:22 14° 303° (WNW) 14:44:36 437.525
SO-50 22 Jan 14:46:37 14:50:29 26° 244° (WSW) 14:54:24 436.795
AO-85 22 Jan 14:47:10 14:50:03 17° 339° (NNW) 14:53:06 145.980
UKube-1 22 Jan 14:49:09 14:53:29 73° 103° (ESE) 14:57:47 .
VELOX 1 22 Jan 14:53:53 14:56:53 18° 301° (WNW) 14:59:53 145.980
BEESAT 3 22 Jan 14:57:37 14:58:32 11° 13° (NNE) 14:59:29 437.485
DOVE 4 22 Jan 14:57:40 15:00:31 18° 61° (ENE) 15:03:22 437.250
DX 1 22 Jan 15:04:20 15:08:34 52° 290° (WNW) 15:12:47 434.975-435.025
ITUPSAT 1 22 Jan 15:06:14 15:09:58 22° 92° (E) 15:13:42 437.325
PCSat 22 Jan 15:18:30 15:21:15 14° 12° (NNE) 15:23:59 145.827
50 SAT 22 Jan 15:19:34 15:22:09 24° 293° (WNW) 15:24:43 437.505
MOZHAYETS 4 22 Jan 15:22:32 15:27:05 52° 100° (E) 15:31:35
ITAMSAT 1 22 Jan 15:28:20 15:33:28 66° 257° (WSW) 15:38:38 435.822/435.867
CUBESAT XI-V 22 Jan 15:30:20 15:33:35 19° 90° (E) 15:36:49 437.345
AO-7 22 Jan 15:32:56 15:40:57 49° 259° (W) 15:49:03 .
CUTE-I 22 Jan 15:37:00 15:38:43 12° 49° (NE) 15:40:26 437.470
M-CUBED/EXP-1 PRIME 22 Jan 15:39:47 15:43:59 64° 66° (ENE) 15:47:53 437.505
BEESAT 22 Jan 15:44:19 15:48:58 47° 100° (E) 15:53:36 436.000
RS-15 22 Jan 15:45:53 15:57:47 65° 39° (NE) 16:09:01 29.354- 29.394
BEESAT 2 22 Jan 15:49:05 15:50:10 11° 12° (NNE) 15:51:16 435.950
HO-68 22 Jan 16:00:01 16:04:24 18° 44° (NE) 16:08:48 435.675
LilacSat-2 22 Jan 16:10:21 16:12:40 16° 61° (ENE) 16:15:00 437.200
XW-2C 22 Jan 16:10:45 16:12:54 15° 60° (ENE) 16:15:03 145.795 - 145.815
UKube-1 22 Jan 16:26:20 16:28:59 16° 302° (WNW) 16:31:38 .
AO-85 22 Jan 16:30:17 16:32:18 13° 4° (N) 16:34:23 145.980
DOVE 4 22 Jan 16:33:43 16:37:53 55° 260° (W) 16:41:58 437.250
BEESAT 3 22 Jan 16:33:57 16:37:22 26° 36° (NE) 16:40:42 437.485
KAITUO 1B 22 Jan 16:40:14 16:43:02 20° 64° (ENE) 16:45:50 145.475/437.950
KKS-1 22 Jan 16:41:35 16:44:03 15° 89° (E) 16:46:31 437.445
ITUPSAT 1 22 Jan 16:43:24 16:48:07 55° 291° (WNW) 16:52:48 437.325
XW-2F 22 Jan 16:44:12 16:47:28 28° 67° (ENE) 16:50:44 145.980 - 146.000
NUDT-PHONESAT 22 Jan 16:48:05 16:51:02 22° 65° (ENE) 16:53:59 437.300
XW-2D 22 Jan 16:54:56 16:58:30 39° 70° (ENE) 17:02:06 145.860 - 145.880
MOZHAYETS 4 22 Jan 17:00:18 17:03:56 23° 299° (WNW) 17:07:33
NO-84 22 Jan 17:01:16 17:03:58 28° 141° (SE) 17:06:33 435.350 FM
PCSat 22 Jan 17:01:41 17:06:27 30° 37° (NE) 17:11:12 145.827
SEEDS 22 Jan 17:03:32 17:05:04 12° 56° (ENE) 17:06:35 437.485
CUBESAT XI-V 22 Jan 17:06:47 17:11:21 59° 289° (WNW) 17:15:52 437.345
XW-2B 22 Jan 17:12:23 17:16:09 58° 73° (ENE) 17:19:55 145.730 - 145.750
CUTE-I 22 Jan 17:12:30 17:17:41 56° 69° (ENE) 17:22:53 437.470
M-CUBED/EXP-1 PRIME 22 Jan 17:16:06 17:18:38 16° 262° (W) 17:21:06 437.505
CUTE 1.7 + AOD 2 22 Jan 17:17:03 17:20:27 23° 64° (ENE) 17:23:51 437.475
BEESAT 22 Jan 17:22:32 17:26:31 26° 298° (WNW) 17:30:28 436.000
BEESAT 2 22 Jan 17:25:46 17:29:12 26° 35° (NE) 17:32:37 435.950
LilacSat-2 22 Jan 17:42:43 17:46:31 59° 259° (W) 17:50:21 437.200
XW-2C 22 Jan 17:42:49 17:46:37 63° 259° (WSW) 17:50:26 145.795 - 145.815
HO-68 22 Jan 17:43:49 17:50:51 63° 66° (ENE) 17:57:54 435.675
CUBEBUG 2 22 Jan 17:45:12 17:49:06 30° 65° (ENE) 17:53:07 437.445
UWE-3 22 Jan 17:47:49 17:51:11 21° 60° (ENE) 17:54:35 435.000/436.395/437.385
RS-15 22 Jan 17:58:56 18:10:03 52° 246° (WSW) 18:20:37 29.354- 29.394
ZACube-1 22 Jan 18:08:05 18:11:11 19° 60° (ENE) 18:14:20 437.345
AO-85 22 Jan 18:10:43 18:14:24 22° 28° (NNE) 18:18:18 145.980
BEESAT 3 22 Jan 18:11:17 18:15:06 51° 237° (WSW) 18:18:52 437.485
KAITUO 1B 22 Jan 18:13:13 18:16:46 40° 262° (W) 18:20:20 145.475/437.950
AAUSAT CUBESAT 2 22 Jan 18:13:23 18:16:42 24° 64° (ENE) 18:20:00 437.432
AO-73 22 Jan 18:13:48 18:16:54 19° 60° (ENE) 18:20:03 145.935
KKS-1 22 Jan 18:16:40 18:21:07 74° 288° (WNW) 18:25:34 437.445
XW-2A 22 Jan 18:16:59 18:19:21 18° 64° (ENE) 18:21:44 145.665 - 145.685
XW-2F 22 Jan 18:18:11 18:21:31 28° 265° (W) 18:24:51 145.980 - 146.000
NUDT-PHONESAT 22 Jan 18:21:15 18:24:42 34° 263° (W) 18:28:08 437.300
ITUPSAT 1 22 Jan 18:24:49 18:24:55 10° 310° (NW) 18:25:02 437.325
STARS 22 Jan 18:27:48 18:32:12 63° 102° (ESE) 18:36:36 437.465
XW-2D 22 Jan 18:29:57 18:32:49 20° 268° (W) 18:35:43 145.860 - 145.880
SEEDS 22 Jan 18:35:50 18:40:03 83° 76° (ENE) 18:44:16 437.485
NO-84 22 Jan 18:38:06 18:41:01 49° 339° (NNW) 18:43:48 435.350 FM
Oscar 11 22 Jan 18:44:52 18:48:14 22° 63° (ENE) 18:51:37 .
PCSat 22 Jan 18:44:55 18:50:19 69° 239° (WSW) 18:55:42 145.827
XW-2B 22 Jan 18:48:36 18:50:40 14° 271° (W) 18:52:44 145.730 - 145.750
CUTE 1.7 + AOD 2 22 Jan 18:51:59 18:56:03 43° 262° (W) 19:00:08 437.475
CUTE-I 22 Jan 18:53:47 18:58:04 25° 268° (W) 19:02:24 437.470
BEESAT 2 22 Jan 19:03:14 19:07:11 55° 236° (SW) 19:11:04 435.950
STRAND 1 22 Jan 19:06:21 19:10:43 27° 93° (E) 19:15:02 437.568
CUBEBUG 2 22 Jan 19:21:32 19:25:37 36° 264° (W) 19:29:52 437.445
UWE-3 22 Jan 19:22:48 19:27:13 58° 260° (W) 19:31:47 435.000/436.395/437.385
HO-68 22 Jan 19:32:47 19:39:01 32° 266° (W) 19:45:18 435.675
ZACube-1 22 Jan 19:42:31 19:46:58 66° 258° (WSW) 19:51:33 437.345
AAUSAT CUBESAT 2 22 Jan 19:48:04 19:51:57 40° 262° (W) 19:55:51 437.432
AO-73 22 Jan 19:48:12 19:52:39 66° 258° (WSW) 19:57:13 145.935
XW-2A 22 Jan 19:48:35 19:51:47 37° 262° (W) 19:55:01 145.665 - 145.685
AO-85 22 Jan 19:50:42 19:55:33 75° 48° (NE) 20:00:45 145.980
KKS-1 22 Jan 19:55:18 19:56:54 12° 306° (NW) 19:58:30 437.445
STARS 22 Jan 20:05:03 20:08:07 19° 301° (WNW) 20:11:12 437.465
DELFI C3 22 Jan 20:08:37 20:11:58 28° 67° (ENE) 20:15:21 145.870
SEEDS 22 Jan 20:14:48 20:16:19 12° 273° (W) 20:17:50 437.485
NO-84 22 Jan 20:16:03 20:18:34 27° 360° (N) 20:21:03 435.350 FM
RS-15 22 Jan 20:16:09 20:19:11 11° 271° (W) 20:22:12 29.354- 29.394
FO-29 22 Jan 20:17:18 20:22:21 47° 99° (E) 20:27:23 435.910
Oscar 11 22 Jan 20:19:53 20:24:06 48° 261° (W) 20:28:20 .
Max Valier Satellite 22 Jan 20:26:01 20:29:15 28° 67° (ENE) 20:32:29 145.860
nSIGHT-1 22 Jan 20:26:38 20:29:18 25° 145° (SE) 20:31:59 .
PCSat 22 Jan 20:30:46 20:32:43 12° 258° (WSW) 20:34:40 145.827
EO-88 22 Jan 20:40:39 20:43:46 27° 67° (ENE) 20:46:54 145.990 - 145.960
STRAND 1 22 Jan 20:45:10 20:50:08 49° 292° (WNW) 20:55:05 437.568
ISS 22 Jan 20:46:52 20:49:42 27° 145° (SE) 20:52:32 437.550
ESTCUBE 1 22 Jan 21:16:18 21:18:30 14° 56° (NE) 21:20:43 437.505/2401.250
YUBILEINY 22 Jan 21:28:03 21:33:58 21° 74° (ENE) 21:39:52 435.215
AO-85 22 Jan 21:31:52 21:35:36 21° 246° (WSW) 21:39:29 145.980
DELFI C3 22 Jan 21:43:13 21:46:39 29° 265° (W) 21:50:07 145.870
TIGRISAT 22 Jan 21:45:01 21:49:27 39° 97° (E) 21:53:51 435.000
NO-84 22 Jan 21:53:22 21:56:08 47° 21° (NNE) 21:58:54 435.350 FM
LO-87 22 Jan 21:54:11 21:57:11 26° 66° (ENE) 22:00:13 145.935 - 145.965
Max Valier Satellite 22 Jan 21:59:48 22:03:01 27° 265° (W) 22:06:16 145.860
UNISAT 6 22 Jan 22:00:43 22:05:23 59° 101° (E) 22:10:01 437.425
nSIGHT-1 22 Jan 22:02:03 22:05:13 85° 343° (NNW) 22:08:25 .
FO-29 22 Jan 22:02:54 22:07:18 28° 299° (WNW) 22:11:40 435.910
EO-88 22 Jan 22:14:12 22:17:21 27° 265° (W) 22:20:31 145.990 - 145.960
ISS 22 Jan 22:22:40 22:25:57 84° 345° (NNW) 22:29:14 437.550
SPROUT 22 Jan 22:26:12 22:28:42 15° 58° (ENE) 22:31:12 437.525
VELOX 1 22 Jan 22:43:47 22:46:09 14° 56° (ENE) 22:48:30 145.980
ESTCUBE 1 22 Jan 22:50:05 22:54:36 85° 79° (ENE) 22:59:10 437.505/2401.250
AIST 2D 22 Jan 22:52:43 22:55:25 21° 93° (E) 22:58:05 435.315
EO-79 22 Jan 23:03:44 23:04:21 10° 86° (E) 23:04:57 145.935-145.965
PRISM 22 Jan 23:14:09 23:18:15 73° 103° (ESE) 23:22:19 437.425
YUBILEINY 22 Jan 23:20:35 23:29:24 82° 97° (E) 23:38:13 435.215
TIGRISAT 22 Jan 23:21:55 23:26:01 30° 295° (WNW) 23:30:06 435.000
LO-87 22 Jan 23:27:26 23:30:30 27° 265° (W) 23:33:38 145.935 - 145.965
NO-84 22 Jan 23:30:40 23:33:10 28° 220° (SW) 23:35:43 435.350 FM
POLYITAN 1 22 Jan 23:36:55 23:40:20 22° 93° (E) 23:43:43 437.675
UNISAT 6 22 Jan 23:38:08 23:41:42 22° 299° (WNW) 23:45:15 437.425
nSIGHT-1 22 Jan 23:38:24 23:41:32 59° 4° (N) 23:44:41 .
NANOSAT C BR1 22 Jan 23:50:32 23:54:11 27° 94° (E) 23:57:48 145.865
ISS 22 Jan 23:59:20 00:02:35 61° 4° (N) 00:05:51 437.550
SPROUT 22 Jan 23:59:48 00:04:02 74° 256° (WSW) 00:08:20 437.525
QB50P2 23 Jan 00:06:20 00:10:30 47° 100° (E) 00:14:38 145.880/145.840
UKube-1 23 Jan 00:13:45 00:16:15 15° 57° (ENE) 00:18:46 .
50 SAT 23 Jan 00:17:05 00:18:49 14° 63° (ENE) 00:20:34 437.505
VELOX 1 23 Jan 00:17:35 00:21:59 85° 259° (W) 00:26:23 145.980
AIST 2D 23 Jan 00:25:32 00:28:38 31° 291° (WNW) 00:31:43 435.315
DX 1 23 Jan 00:28:15 00:32:00 30° 65° (ENE) 00:35:47 434.975-435.025
ESTCUBE 1 23 Jan 00:30:02 00:32:02 13° 273° (W) 00:34:03 437.505/2401.250
DUCHIFAT 1 23 Jan 00:32:44 00:36:59 60° 102° (ESE) 00:41:11 145.980
O/OREOS (USA 219) 23 Jan 00:35:08 00:39:36 67° 113° (ESE) 00:44:04 437.305
EO-79 23 Jan 00:36:27 00:40:47 85° 104° (ESE) 00:45:04 145.935-145.965
Oscar 19 23 Jan 00:47:51 00:51:12 17° 88° (E) 00:54:31 437.125/150
Gurwin Techsat 1B 23 Jan 00:49:44 00:52:28 14° 86° (E) 00:55:12 435.225
PRISM 23 Jan 00:50:43 00:53:00 15° 302° (WNW) 00:55:17 437.425
MOZHAYETS 4 23 Jan 00:54:12 00:56:29 14° 55° (NE) 00:58:45
POLYITAN 1 23 Jan 01:12:12 01:16:18 44° 291° (WNW) 01:20:22 437.675
nSIGHT-1 23 Jan 01:14:37 01:17:46 65° 203° (SSW) 01:20:56 .
BEESAT 23 Jan 01:19:40 01:22:25 15° 55° (NE) 01:25:09 436.000
YUBILEINY 23 Jan 01:19:56 01:27:17 29° 301° (WNW) 01:34:39 435.215
AO-91 23 Jan 01:20:32 01:24:40 36° 98° (E) 01:29:12 145.960
NANOSAT C BR1 23 Jan 01:26:02 01:29:58 36° 293° (WNW) 01:33:52 145.865
BUGSAT 1 23 Jan 01:26:18 01:30:30 54° 101° (E) 01:34:39 437.445
ISS 23 Jan 01:35:52 01:39:07 63° 204° (SSW) 01:42:22 437.550
QB50P2 23 Jan 01:42:40 01:46:00 22° 298° (WNW) 01:49:19 145.880/145.840
50 SAT 23 Jan 01:47:18 01:50:13 39° 260° (W) 01:53:10 437.505
UKube-1 23 Jan 01:47:26 01:51:44 77° 256° (WSW) 01:56:03 .
VELOX 1 23 Jan 01:58:11 01:59:07 11° 274° (W) 02:00:02 145.980
DX 1 23 Jan 02:04:12 02:08:08 34° 263° (W) 02:12:06 434.975-435.025
DUCHIFAT 1 23 Jan 02:09:19 02:12:13 18° 300° (WNW) 02:15:08 145.980
EO-79 23 Jan 02:13:43 02:15:55 14° 303° (WNW) 02:18:07 145.935-145.965
O/OREOS (USA 219) 23 Jan 02:16:03 02:19:27 21° 314° (NW) 02:22:52 437.305
ITUPSAT 1 23 Jan 02:16:47 02:21:17 42° 67° (ENE) 02:25:48 437.325
Oscar 19 23 Jan 02:25:56 02:31:08 77° 287° (WNW) 02:36:16 437.125/150
Gurwin Techsat 1B 23 Jan 02:27:52 02:33:13 86° 105° (ESE) 02:38:33 435.225
MOZHAYETS 4 23 Jan 02:28:15 02:32:53 82° 76° (ENE) 02:37:34
CUBESAT XI-V 23 Jan 02:37:21 02:41:27 31° 65° (ENE) 02:45:34 437.345
